Location: Makakahi
(40.6833°S, 175.6000°E)
Time: 00:11:02
(UTC+00:00)

FENGYUN 1C DEB - Pass Details

Date: 14 December 2024
Orbit: 841 x 907 km, 98.9° (Epoch: 11 January)

Event Time Altitude Azimuth Distance (km) Brightness Sun altitude
Rises 09:15:08 0° 166° (SSE) 3,486 ? -14.0°
Reaches altitude 10° 09:17:33 10° 165° (SSE) 2,533 ? -14.3°
Maximum altitude 09:23:11 85° 77° (ENE) 869 ? -14.9°
Drops below altitude 10° 09:28:41 10° 346° (NNW) 2,469 ? -15.6°
Enters shadow 09:29:15 - 346° (NNW) 2,691 ? -15.7°
